FW2867 Weather Reports


time (UTC)temp
C
wind
direction
speed
KPH
gust
KPH
rain 1hr
cm
rain 24hr
cm
rain mn
cm
humidity
%
barometer
mb
20260504040006 15 298 16.1 35.4 0.00 0.00 0.00 49 994.6
20260504034501 17 319 1.6 8.0 0.00 0.00 0.00 29 993.9
20260504033005 18 317 0.0 9.7 0.00 0.00 0.00 27 993.7
20260504031501 18 322 0.0 12.9 0.00 0.00 0.00 25 993.7
20260504030059 18 305 9.7 19.3 0.00 0.00 0.00 25 994.3
20260504024601 17 314 4.8 9.7 0.00 0.00 0.00 27 994.6
20260504023058 17 339 0.0 0.0 0.00 0.00 0.00 25 994.5
20260504021556 18 339 0.0 0.0 0.00 0.00 0.00 23 994.2
20260504020056 19 339 0.0 4.8 0.00 0.00 0.00 22 994.3
20260504014553 20 338 1.6 8.0 0.00 0.00 0.00 21 994.7
20260504013104 20 13 1.6 6.4 0.00 0.00 0.00 19 995.0
20260504011551 21 211 1.6 9.7 0.00 0.00 0.00 18 995.1
20260504010049 21 279 3.2 9.7 0.00 0.00 0.00 18 995.3
20260504004600 21 194 3.2 11.3 0.00 0.00 0.00 17 995.7
20260504003046 22 178 1.6 16.1 0.00 0.00 0.00 17 996.0
20260504001547 22 244 3.2 19.3 0.00 0.00 0.00 15 996.2
20260504000044 22 251 3.2 20.9 0.00 0.00 0.00 16 996.5
20260503234541 22 276 4.8 37.0 0.00 0.00 0.00 16 996.9
20260503233040 22 213 4.8 27.4 0.00 0.00 0.00 15 997.1
20260503231540 22 267 6.4 19.3 0.00 0.00 0.00 15 997.4
20260503230037 22 251 6.4 20.9 0.00 0.00 0.00 14 997.8
20260503224535 22 226 3.2 17.7 0.00 0.00 0.00 14 998.0
20260503223033 23 286 8.0 22.5 0.00 0.00 0.00 13 998.1
20260503221536 23 196 8.0 33.8 0.00 0.00 0.00 14 998.3
20260503220034 22 253 8.0 25.7 0.00 0.00 0.00 14 999.0
20260503214527 23 253 9.7 37.0 0.00 0.00 0.00 14 999.4
20260503213029 23 184 4.8 24.1 0.00 0.00 0.00 16 999.7
20260503211535 22 249 8.0 22.5 0.00 0.00 0.00 17 1000.2
20260503210021 22 223 6.4 20.9 0.00 0.00 0.00 16 1000.8
20260503204519 22 222 4.8 16.1 0.00 0.00 0.00 18 1001.6
20260503203020 21 260 4.8 17.7 0.00 0.00 0.00 18 1002.4
20260503201516 22 252 9.7 19.3 0.00 0.00 0.00 17 1002.7
20260503200012 23 250 6.4 19.3 0.00 0.00 0.00 17 1003.1
20260503194508 22 336 4.8 25.7 0.00 0.00 0.00 19 1003.4
20260503193023 22 246 9.7 25.7 0.00 0.00 0.00 17 1003.9
20260503191504 22 319 6.4 19.3 0.00 0.00 0.00 19 1004.1
20260503190004 22 186 6.4 14.5 0.00 0.00 0.00 18 1004.2
20260503184609 21 204 8.0 20.9 0.00 0.00 0.00 19 1004.6
20260503183058 21 299 6.4 19.3 0.00 0.00 0.00 20 1005.2
20260503181556 21 214 11.3 30.6 0.00 0.00 0.00 20 1006.0
20260503180052 21 283 3.2 20.9 0.00 0.00 0.00 20 1006.4
20260503174603 20 182 3.2 14.5 0.00 0.00 0.00 21 1006.8
20260503173049 18 224 6.4 20.9 0.00 0.00 0.00 21 1007.2
20260503171543 18 244 4.8 17.7 0.00 0.00 0.00 22 1007.7
20260503081544 5 5 4.8 12.9 0.00 0.00 0.00 46 1010.8
20260503071538 5 344 8.0 16.1 0.00 0.00 0.00 44 1010.7
20260503054526 8 307 6.4 14.5 0.00 0.00 0.00 42 1010.4
20260503053012 9 355 6.4 17.7 0.00 0.00 0.00 42 1010.4
20260503051511 10 355 8.0 20.9 0.00 0.00 0.00 42 1010.3
20260503050011 10 325 6.4 17.7 0.00 0.00 0.00 43 1010.4
20260503044513 10 294 9.7 17.7 0.00 0.00 0.00 44 1010.4
20260503043010 11 326 6.4 24.1 0.00 0.00 0.00 43 1010.4
20260503041509 11 347 9.7 24.1 0.00 0.00 0.00 43 1010.3